Home > Weather > Saskatoon > Past weeks

Flag for Canada Weather for the Past 2 Weeks in Saskatoon, Saskatchewan, Canada

Now
10 °F

Mostly cloudy.


Feels Like: -3 °F
Forecast: 3 / 14 °F
Wind: 9 mph from Northeast

Location: Saskatoon Weather Station

Current Time: Feb 11, 2016 at 3:50:04 AM

Latest Report: Feb 11, 2016 at 3:00 AM


Visibility: 15 mi

Pressure: 30.32 "Hg

Humidity: 85%

Dew point: 7 °F

Location of SaskatoonLocation

Historic Weather in Saskatoon — Graph

°F

Saskatoon Temperature Yesterday

Maximum temperature yesterday: 25 °F (at 12:00 AM)
Minimum temperature yesterday: 12 °F (at 11:00 PM)
Average temperature yesterday: 21 °F

High & Low Weather Summary for the Past Weeks

 TemperatureHumidityPressure
High39 °F (Jan 27, 5:00 AM)100% (Jan 27, 2:00 AM)30.49 "Hg (Jan 27, 2:00 AM)
Low1 °F (Feb 2, 3:00 AM)56% (Feb 6, 5:00 PM)29.32 "Hg (Jan 28, 10:00 PM)
Average21 °F85%29.98 "Hg
* Reported Jan 27 2:00 AM — Feb 11 2:00 AM, Saskatoon, Weather by CustomWeather, © 2016

Note: Actual official high and low records may vary slightly from our data, if they occured in-between our weather recording intervals... More about our weather records

Advertising

Saskatoon Weather History for the Previous 24 Hours

 ConditionsComfort  
Time TempWeatherWind HumidityBarometerVisibility
2:00 AM
Thu, Feb 11
10 °FMostly cloudy.13 mph92%30.33 "Hg15 mi
1:00 AM12 °FLow clouds.10 mph85%30.35 "Hg15 mi
12:00 AM12 °FLow clouds.9 mph85%30.35 "Hg15 mi
11:00 PM
Wed, Feb 10
12 °FLight snow. Overcast.10 mph85%30.35 "Hg15 mi
10:00 PM14 °FOvercast.12 mph85%30.35 "Hg15 mi
9:00 PM16 °FOvercast.13 mph93%30.34 "Hg15 mi
8:00 PM18 °FOvercast.9 mph93%30.35 "Hg15 mi
7:00 PM19 °FOvercast.8 mph86%30.35 "Hg15 mi
6:00 PM19 °FCold.12 mph93%30.34 "Hg15 mi
5:00 PM21 °FOvercast.10 mph86%30.33 "Hg15 mi
4:00 PM21 °FOvercast.6 mph86%30.32 "Hg15 mi
3:00 PM21 °FOvercast.8 mph86%30.32 "Hg15 mi
2:00 PM21 °FOvercast.7 mph80%30.33 "Hg15 mi
1:00 PM19 °FOvercast.10 mph86%30.31 "Hg15 mi
12:00 PM21 °FMostly cloudy.15 mph80%30.29 "Hg15 mi
11:00 AM21 °FMostly cloudy.15 mph86%30.26 "Hg15 mi
10:00 AM21 °FLow clouds.15 mph86%30.21 "Hg15 mi
9:00 AM23 °FMore clouds than sun.18 mph86%30.16 "Hg15 mi
8:00 AM25 °FMostly cloudy.18 mph86%30.14 "Hg15 mi
7:00 AM23 °FMostly cloudy.8 mph100%30.11 "Hg15 mi
6:00 AM23 °FPartly cloudy.7 mph100%30.08 "Hg15 mi
5:00 AM25 °FLow clouds.6 mph93%30.05 "Hg15 mi
4:00 AM23 °FOvercast.5 mph100%30.01 "Hg12 mi
3:00 AM23 °FPartly cloudy.3 mph100%30.00 "Hg15 mi
Weather by CustomWeather, © 2016

See weather overviewHow to use our weather pages